TimeMDT,TemperatureF,Dew PointF,Humidity,Sea Level PressureIn,VisibilityMPH,Wind Direction,Wind SpeedMPH,Gust SpeedMPH,PrecipitationIn,Events,Conditions,WindDirDegrees,DateUTC
12:53 AM,61.0,46.0,58,29.99,10.0,South,4.6,-,N/A,,Clear,180,2013-08-15 06:53:00
1:53 AM,55.9,46.0,69,29.99,10.0,SW,3.5,-,N/A,,Clear,220,2013-08-15 07:53:00
2:53 AM,54.0,45.0,72,29.99,10.0,Calm,Calm,-,N/A,,Clear,0,2013-08-15 08:53:00
3:53 AM,53.1,45.0,74,29.98,10.0,SSW,4.6,-,N/A,,Clear,200,2013-08-15 09:53:00
4:53 AM,51.1,44.1,77,29.99,10.0,Calm,Calm,-,N/A,,Clear,0,2013-08-15 10:53:00
5:53 AM,51.1,44.1,77,30.01,10.0,Calm,Calm,-,N/A,,Clear,0,2013-08-15 11:53:00
6:53 AM,52.0,45.0,77,30.03,10.0,Calm,Calm,-,N/A,,Clear,0,2013-08-15 12:53:00
7:53 AM,61.0,46.9,60,30.04,10.0,Calm,Calm,-,N/A,,Clear,0,2013-08-15 13:53:00
8:53 AM,70.0,46.0,42,30.04,10.0,Calm,Calm,-,N/A,,Clear,0,2013-08-15 14:53:00
9:53 AM,75.0,46.9,37,30.02,10.0,Calm,Calm,-,N/A,,Clear,0,2013-08-15 15:53:00
10:53 AM,79.0,48.0,34,30.01,10.0,Calm,Calm,-,N/A,,Clear,0,2013-08-15 16:53:00
11:53 AM,84.0,45.0,25,29.98,10.0,East,5.8,-,N/A,,Clear,90,2013-08-15 17:53:00
12:53 PM,86.0,41.0,20,29.97,10.0,Variable,3.5,-,N/A,,Clear,0,2013-08-15 18:53:00
1:53 PM,86.0,37.9,18,29.98,10.0,Variable,3.5,-,N/A,,Clear,0,2013-08-15 19:53:00
2:53 PM,89.1,41.0,19,29.96,10.0,East,5.8,-,N/A,,Clear,80,2013-08-15 20:53:00
3:53 PM,88.0,41.0,19,29.95,10.0,East,4.6,-,N/A,,Clear,80,2013-08-15 21:53:00
4:53 PM,91.0,39.0,16,29.96,10.0,NE,5.8,-,N/A,,Clear,50,2013-08-15 22:53:00
5:53 PM,90.0,36.0,15,29.95,10.0,NNE,6.9,-,N/A,,Clear,30,2013-08-15 23:53:00
6:53 PM,84.9,43.0,23,29.95,10.0,NE,5.8,-,N/A,,Clear,50,2013-08-16 00:53:00
7:53 PM,73.9,48.0,40,29.96,10.0,Calm,Calm,-,N/A,,Clear,0,2013-08-16 01:53:00
8:53 PM,66.9,46.0,47,29.98,10.0,SSW,5.8,-,N/A,,Clear,200,2013-08-16 02:53:00
9:53 PM,63.0,46.0,54,30.00,10.0,Calm,Calm,-,N/A,,Clear,0,2013-08-16 03:53:00
11:53 PM,57.0,46.0,67,29.98,10.0,Calm,Calm,-,N/A,,Clear,0,2013-08-16 05:53:00